Regional Weather Roundup
Issued by NWS

Home | Current Version | Previous Version | Text Only | Print | Product List | Glossary Off
Versions: 1 2 3 4 5 6 7 8 9 10 11 12 13 14 15 16 17 18 19 20 21 22 23 24 25 26 27 28 29 30 31 32 33 34 35 36 37 38 39 40 41 42 43 44 45 46 47 48 49 50

000
ASUS45 KCYS 171310
RWRWY

WYOMING REGIONAL WEATHER ROUNDUP
NATIONAL WEATHER SERVICE CHEYENNE WY
700 AM MDT WED SEP 17 2014

NOTE:  "FAIR" INDICATES FEW OR NO CLOUDS BELOW 12,000 FEET
WITH NO SIGNIFICANT WEATHER AND/OR OBSTRUCTIONS TO VISIBILITY.

WYZ001-171400-
YELLOWSTONE NATIONAL PARK

CITY           SKY/WX    TMP DP  RH WIND       PRES   REMARKS
LK YELLOWSTONE   N/A     34  32  92 CALM      30.25R
W YELLOWSTONE  NOT AVBL

$$
WYZ002>013-054>058-071-098>099-171400-
NORTHERN WYOMING

CITY           SKY/WX    TMP DP  RH WIND       PRES   REMARKS
JACKSON        MOCLDY    43  39  87 VRB7        N/A
CODY           CLEAR     55  43  62 SW6       30.04F
GREYBULL       CLEAR     52  45  77 CALM      29.98S
WORLAND        CLEAR     49  44  83 S7        30.00R
SHERIDAN       CLOUDY    59  47  64 SW6       29.97R
BUFFALO        LGT RAIN  60  42  51 SW8       30.04R
GILLETTE       CLOUDY    65  38  36 SW15      29.99R
HULETT         FAIR      54  37  54 MISG      30.00
NEWCASTLE      FAIR      54  36  50 N7        30.00

$$
WYZ014>020-022>026-101>103-171400-
CENTRAL WYOMING

CITY           SKY/WX    TMP DP  RH WIND       PRES   REMARKS
BIG PINEY      MOCLDY    42  35  76 E7        30.21R
PINEDALE       PTSUNNY   41  37  87 CALM      30.22R
DUBOIS         FAIR      41  37  87 NW6       30.19R
LANDER         CLEAR     51  40  65 N7        30.07R
RIVERTON       CLEAR     53  39  59 NW12      30.09R
CASPER         MOCLDY    56  38  50 SE9       30.08F
DOUGLAS        CLEAR     47  39  74 NW10      30.09R

$$
WYZ021-027>030-104>119-171400-
SOUTHERN WYOMING

CITY           SKY/WX    TMP DP  RH WIND       PRES   REMARKS
EVANSTON       PTCLDY    56  36  47 S8        30.18S
KEMMERER       SUNNY     45  36  70 N10       30.20R
FORT BRIDGER   FAIR      55  35  47 S6        30.20S
ROCK SPRINGS   CLEAR     52  35  52 CALM      30.17S
DIXON          FAIR      47  38  73 CALM      30.23R
RAWLINS        CLEAR     47  34  60 E5        30.19R
SARATOGA       FAIR      46  36  66 CALM      30.23R
LARAMIE        CLEAR     43  34  70 S8        30.22R
CHEYENNE       CLEAR     51  38  60 W9        30.13R
TORRINGTON     CLEAR     50  45  83 SW6       30.00R
PINE BLUFFS    FAIR      46  37  71 CALM      30.07S

$$


USA.gov is the U.S. government's official web portal to all federal, state and local government web resources and services.